Location: Latina
(41.4670°N, 12.8670°E)
Time: 18:23:58
(UTC+02:00)

ISS - Pass Details

Date: 12 May 2021
Orbit: 417 x 422 km, 51.6° (Epoch: 18 June)

Event Time Altitude Azimuth Distance (km) Brightness Sun altitude
Exits shadow 01:16:53 13° 27° (NNE) 1,364 -0.5 -30.3°
Drops below altitude 10° 01:17:23 10° 34° (NNE) 1,508 -0.3 -30.3°
Sets 01:19:52 0° 51° (NE) 2,375 0.6 -30.3°
